Weather History for KRPJ - May, 2014

Change the Weather History Date:

Tuesday, May 13, 2014

  Actual Average (KRFD) Record (KRFD)
Temperature  
Mean Temperature 56 °F 59 °F  
Max Temperature 64 °F 71 °F 88 °F (1991)
Min Temperature 49 °F 47 °F 32 °F (1938)
Degree Days  
Heating Degree Days 8 7  
Month to date heating degree days 112  
Since 1 July heating degree days 6452  
Cooling Degree Days 0 1  
Month to date cooling degree days 11  
Year to date cooling degree days 19  
Growing Degree Days 6 (Base 50)    
Moisture  
Dew Point 51 °F    
Average Humidity 85    
Maximum Humidity 96    
Minimum Humidity 72    
Precipitation  
Precipitation 0.04 in 0.13 in 1.74 in (2010)
Month to date precipitation 1.51  
Year to date precipitation 9.96  
Snow  
Snow 0.00 in 0.00 in 0.00 in ()
Month to date snowfall 0.0  
Since 1 July snowfall 36.7  
Snow Depth -    
Sea Level Pressure  
Sea Level Pressure 30.01 in    
Wind  
Wind Speed 12 mph (West)    
Max Wind Speed 18 mph    
Max Gust Speed 25 mph    
Visibility 9 miles    
Events Rain    
T = Trace of Precipitation, MM = Missing Value Source: NWS Daily Summary

Daily Weather History Graph

Daily Weather History Graph

Search for Another Location

Airport or City:

Trip Planner

Search our weather history database for the weather conditions in past years. The results will help you decide how hot, cold, wet, or windy it might be!

Date:

Astronomy

May. 13, 2014 Rise Set
Actual Time 5:38 AM CDT 8:07 PM CDT
Civil Twilight 5:06 AM CDT 8:39 PM CDT
Nautical Twilight 4:27 AM CDT 9:19 PM CDT
Astronomical Twilight 3:43 AM CDT 10:03 PM CDT
Moon 7:08 PM CDT (5/13) 4:56 AM CDT (5/13)
Length of Visible Light 15h 32m
Length of Day
14h 29m
Waxing Gibbous, 99% of the Moon is Illuminated
May 13
Waxing Gibbous
May 14
Full
May 21
Last Quarter
May 28
New
Jun 5
First Quarter

Hourly Weather History & Observations

Time (CDT) Temp. Dew Point Humidity Pressure Visibility Wind Dir Wind Speed Gust Speed Precip Events Conditions
12:15 AM 63.3 °F 61.7 °F 94% 29.83 in 10.0 mi East 11.5 mph - N/A   Clear
12:35 AM 63.5 °F 61.3 °F 93% 29.81 in 10.0 mi East 13.8 mph - N/A   Scattered Clouds
12:55 AM 63.5 °F 61.5 °F 93% 29.82 in 10.0 mi ESE 10.4 mph - N/A   Scattered Clouds
1:15 AM 63.1 °F 61.3 °F 94% 29.85 in 10.0 mi South 6.9 mph - N/A   Scattered Clouds
1:35 AM 63.1 °F 61.3 °F 94% 29.86 in 10.0 mi SSW 9.2 mph - N/A   Scattered Clouds
1:55 AM 62.8 °F 61.2 °F 94% 29.86 in 10.0 mi SSE 6.9 mph - N/A   Mostly Cloudy
2:15 AM 62.8 °F 61.3 °F 95% 29.85 in 10.0 mi SSE 9.2 mph - N/A   Overcast
2:35 AM 62.8 °F 61.5 °F 96% 29.87 in 7.0 mi South 9.2 mph - N/A   Mostly Cloudy
2:55 AM 63.3 °F 61.9 °F 95% 29.88 in 7.0 mi South 12.7 mph - N/A Rain Light Rain
3:15 AM 63.9 °F 62.4 °F 95% 29.88 in 5.0 mi South 11.5 mph - N/A Rain Rain
3:35 AM 64.2 °F 62.8 °F 95% 29.88 in 4.0 mi SSE 15.0 mph - 0.02 in Rain Light Rain
3:55 AM 64.6 °F 63.1 °F 95% 29.87 in 5.0 mi South 16.1 mph - 0.02 in Rain Light Rain
4:15 AM 64.4 °F 63.0 °F 95% 29.87 in 7.0 mi South 13.8 mph - 0.01 in Rain Rain
4:35 AM 64.0 °F 62.2 °F 94% 29.89 in 3.0 mi SW 11.5 mph - 0.01 in   Heavy Drizzle
4:55 AM 59.9 °F 58.3 °F 94% 29.89 in 5.0 mi WSW 16.1 mph - 0.02 in Rain Rain
5:15 AM 58.3 °F 56.5 °F 94% 29.90 in 10.0 mi West 13.8 mph - N/A   Overcast
5:35 AM 57.0 °F 55.2 °F 94% 29.90 in 10.0 mi West 12.7 mph - N/A Rain Rain
5:55 AM 55.6 °F 53.8 °F 94% 29.91 in 7.0 mi West 11.5 mph - N/A   Drizzle
6:15 AM 55.4 °F 53.8 °F 94% 29.91 in 5.0 mi West 11.5 mph - N/A   Drizzle
6:35 AM 54.5 °F 52.9 °F 94% 29.91 in 3.0 mi West 9.2 mph - N/A   Drizzle
6:55 AM 54.5 °F 53.1 °F 95% 29.91 in 5.0 mi West 12.7 mph - N/A Rain Light Rain
8:15 AM 53.8 °F 51.6 °F 92% 29.95 in 10.0 mi West 16.1 mph - N/A   Overcast
8:35 AM 54.0 °F 51.4 °F 91% 29.94 in 10.0 mi West 13.8 mph - N/A   Overcast
9:15 AM 53.8 °F 51.1 °F 91% 29.98 in 10.0 mi West 13.8 mph 18.4 mph N/A   Overcast
10:55 AM 53.2 °F 50.2 °F 89% 30.00 in 10.0 mi West 12.7 mph - N/A   Overcast
11:35 AM 54.1 °F 49.8 °F 85% 30.01 in 10.0 mi West 15.0 mph - N/A   Overcast
12:15 PM 53.6 °F 49.1 °F 85% 30.02 in 10.0 mi West 18.4 mph - N/A   Overcast
12:35 PM 53.1 °F 48.9 °F 86% 30.04 in 10.0 mi West 15.0 mph 23.0 mph N/A   Overcast
12:55 PM 53.4 °F 48.0 °F 82% 30.03 in 10.0 mi West 18.4 mph 25.3 mph N/A   Overcast
1:15 PM 54.5 °F 49.1 °F 82% 30.03 in 10.0 mi West 18.4 mph 23.0 mph N/A   Overcast
1:35 PM 52.7 °F 48.0 °F 84% 30.04 in 10.0 mi West 17.3 mph 25.3 mph N/A   Overcast
1:55 PM 53.6 °F 48.2 °F 82% 30.04 in 10.0 mi West 16.1 mph - N/A   Overcast
2:15 PM 52.7 °F 47.3 °F 82% 30.05 in 10.0 mi West 17.3 mph 24.2 mph N/A   Overcast
2:35 PM 52.7 °F 46.9 °F 81% 30.05 in 10.0 mi West 18.4 mph 21.9 mph N/A   Overcast
2:55 PM 53.1 °F 47.3 °F 81% 30.05 in 10.0 mi West 16.1 mph - N/A   Overcast
3:15 PM 52.9 °F 45.9 °F 77% 30.05 in 10.0 mi West 17.3 mph 21.9 mph N/A   Overcast
3:35 PM 52.7 °F 46.6 °F 80% 30.06 in 10.0 mi West 16.1 mph - N/A   Overcast
3:55 PM 52.5 °F 46.2 °F 79% 30.06 in 10.0 mi West 15.0 mph - N/A   Overcast
4:15 PM 52.7 °F 46.2 °F 79% 30.07 in 10.0 mi West 11.5 mph 20.7 mph N/A   Overcast
4:35 PM 53.1 °F 46.2 °F 78% 30.07 in 10.0 mi WNW 13.8 mph - N/A   Overcast
4:55 PM 53.2 °F 46.0 °F 77% 30.07 in 10.0 mi West 16.1 mph - N/A   Overcast
5:15 PM 53.6 °F 46.2 °F 76% 30.08 in 10.0 mi WNW 15.0 mph - N/A   Overcast
5:35 PM 53.6 °F 46.8 °F 78% 30.08 in 10.0 mi West 12.7 mph - N/A   Overcast
5:55 PM 53.6 °F 46.8 °F 78% 30.08 in 10.0 mi West 13.8 mph - N/A   Overcast
6:15 PM 53.2 °F 46.0 °F 77% 30.09 in 10.0 mi West 11.5 mph - N/A   Overcast
6:35 PM 53.2 °F 46.4 °F 78% 30.09 in 10.0 mi WNW 11.5 mph 18.4 mph N/A   Overcast
6:55 PM 53.1 °F 46.6 °F 79% 30.09 in 10.0 mi WNW 10.4 mph - N/A   Overcast
7:15 PM 53.1 °F 44.6 °F 73% 30.10 in 10.0 mi WNW 10.4 mph 18.4 mph N/A   Overcast
7:35 PM 52.7 °F 44.6 °F 74% 30.11 in 10.0 mi WNW 8.1 mph - N/A   Overcast
7:55 PM 52.5 °F 43.9 °F 72% 30.12 in 10.0 mi WNW 12.7 mph - N/A   Overcast
8:15 PM 52.0 °F 43.7 °F 73% 30.13 in 10.0 mi WNW 11.5 mph - N/A   Overcast
8:35 PM 51.4 °F 43.0 °F 73% 30.14 in 10.0 mi NW 9.2 mph - N/A   Overcast
8:55 PM 51.1 °F 42.8 °F 73% 30.14 in 10.0 mi NW 8.1 mph - N/A   Overcast
9:15 PM 51.1 °F 42.4 °F 72% 30.15 in 10.0 mi NW 6.9 mph - N/A   Overcast
9:35 PM 51.1 °F 43.2 °F 74% 30.16 in 10.0 mi WNW 6.9 mph - N/A   Overcast
9:55 PM 50.9 °F 43.5 °F 76% 30.17 in 10.0 mi WNW 3.5 mph - N/A   Overcast
10:15 PM 50.9 °F 43.7 °F 76% 30.17 in 10.0 mi WNW 4.6 mph - N/A   Overcast
10:35 PM 50.9 °F 43.7 °F 76% 30.17 in 10.0 mi NW 4.6 mph - N/A   Overcast
11:15 PM 50.4 °F 43.7 °F 78% 30.16 in 10.0 mi NW 4.6 mph - N/A   Overcast
11:35 PM 49.8 °F 43.7 °F 79% 30.17 in 10.0 mi WNW 4.6 mph - N/A   Scattered Clouds
11:55 PM 49.1 °F 43.7 °F 82% 30.17 in 10.0 mi NW 5.8 mph - N/A   Clear